Regional Weather Roundup
Issued by NWS

Home | Current Version | Previous Version | Graphics & Text | Print | Product List | Glossary On
Versions: 1 2 3 4 5 6 7 8 9 10 11 12 13 14 15 16 17 18 19 20 21 22 23 24 25 26 27 28 29 30 31 32 33 34 35 36 37 38 39 40 41 42 43 44 45 46 47 48 49 50
000
ASUS43 KLSX 290507
RWRMO

WEATHER SUMMARY FOR MISSOURI
NATIONAL WEATHER SERVICE SPRINGFIELD MO
1100 PM CST WED JAN 28 2015

NOTE: "FAIR" INDICATES FEW OR NO CLOUDS BELOW 12,000 FEET WITH NO
       SIGNIFICANT WEATHER AND/OR OBSTRUCTIONS TO VISIBILITY.
       CURRENT SKY AND/OR WEATHER CONDITIONS ARE NOT AVAILABLE FOR
       CHILLICOTHE AND FARMINGTON.

MOZ001>031-035>038-043-044-053-054-290600-
...NORTHERN AND WESTERN MISSOURI...

CITY           SKY/WX    TMP DP  RH WIND       PRES   REMARKS
KANSAS CTY INT MOCLDY    55  36  48 NW17G25   29.81R
KANSAS C DTWN  CLEAR     59  35  40 NW12G21   29.80R
LEE`S SUMMIT   MOCLDY    58  36  43 W12G21    29.80R
ST JOSEPH      CLEAR     53  38  56 NW16G33   29.82R
CHILLICOTHE      N/A     55  37  50 VRB5      29.75R
KIRKSVILLE     PTCLDY    50  38  63 SW8       29.70R

$$
MOZ066>068-077>081-088>096-101>105-290600-
...SOUTHWEST MISSOURI...

CITY           SKY/WX    TMP DP  RH WIND       PRES   REMARKS
SPRINGFIELD    MOCLDY    53  40  61 S10       29.87R
JOPLIN         MOCLDY    61  41  47 SW14      29.88S

$$
MOZ032>034-039>042-045>050-055>058-069>072-290600-
...CENTRAL MISSOURI...

CITY           SKY/WX    TMP DP  RH WIND       PRES   REMARKS
COLUMBIA       CLOUDY    54  38  54 S16       29.77F
JEFFERSON CITY CLOUDY    56  37  49 S8        29.80S
ROLLA          MOCLDY    50  37  61 SW15      29.82F
SEDALIA        MOCLDY    57  41  55 SW12      29.77F
WHITEMAN AFB   MOCLDY    55  41  58 SW9       29.77S
WARRENSBURG    MOCLDY    55  39  54 SW14      29.78R
OSAGE BEACH    CLOUDY    54  37  54 S9        29.82F

$$
MOZ051-052-059>065-290600-
...EAST CENTRAL MISSOURI...

CITY           SKY/WX    TMP DP  RH WIND       PRES   REMARKS
ST LOUIS INTL  MOCLDY    48  34  58 S9        29.84F
SPIRIT OF STL  PTCLDY    50  35  56 VRB7      29.82F
ST CHARLES     PTCLDY    41  34  76 SE8       29.82F

$$
MOZ072>076-082>087-097>100-106>115-290600-
...SOUTH CENTRAL AND SOUTHEAST MISSOURI...

CITY           SKY/WX    TMP DP  RH WIND       PRES   REMARKS
CAPE GIRARDEAU CLOUDY    45  33  63 S12       29.99F
FARMINGTON     PTCLDY    48  36  61 S18G26    29.93F
POPLAR BLUFF   CLOUDY    47  35  63 S8        29.97F
WEST PLAINS    CLEAR     47  36  65 S9        29.93F

$$


USA.gov is the U.S. government's official web portal to all federal, state and local government web resources and services.